Helicity
63 51 39 32 34 33 26 23 20 20 22 34 30 31 38 45 52 64 71 81 91 85 75 71 71 73 85 100 84 106 142 146 143 143 147 151 151 134 160 154 189 226 281
44 36 30 25 22 18 24 33 30 19 20 25 33 38 36 41 53 56 61 76 88 89 81 75 70 85 68 85 99 121 138 159 155 184 164 200 197 172 209 246 258 281 254
43 38 31 27 30 30 29 30 35 32 31 31 30 34 42 52 54 59 62 67 76 90 98 92 81 74 77 83 85 111 126 166 151 237 233 252 245 202 265 268 296 328 304
46 37 29 24 29 32 29 24 22 22 22 24 29 31 34 40 50 52 62 64 72 76 96 102 79 85 76 63 85 114 156 154 160 197 256 265 263 260 263 268 264 268 348
40 35 35 35 34 32 28 22 21 23 24 26 30 35 38 41 44 51 62 66 73 84 90 98 70 37 54 55 125 112 198 196 193 249 276 295 296 269 227 263 328 333 395
34 35 41 44 39 34 27 24 23 19 16 21 29 36 41 51 43 46 57 71 57 66 89 77 71 51 14 78 84 99 172 159 185 209 268 277 251 279 309 313 363 356 303
34 40 49 50 38 32 32 30 30 29 33 30 41 58 56 50 42 43 59 73 63 50 63 73 78 63 61 35 55 95 121 146 109 148 194 205 260 213 270 295 264 318 307
43 44 53 56 41 38 37 39 43 49 44 58 64 69 67 66 49 50 69 72 57 42 45 56 56 66 58 48 73 99 131 146 141 146 198 183 205 249 208 276 322 404 334
45 53 59 56 43 39 37 40 43 54 58 65 51 66 73 84 78 81 88 80 67 51 45 37 42 42 60 69 115 212 283 333 227 263 225 230 202 161 286 331 294 353 297
54 58 60 51 44 40 39 40 46 51 53 70 79 76 74 92 94 92 77 50 22 -4 33 20 14 20 56 85 265 331 341 278 296 270 223 250 179 149 157 162 220 266 271
56 58 58 47 44 48 37 38 47 46 48 69 78 76 54 64 80 71 62 6 -14 -29 -4 6 36 58 47 194 183 255 307 319 348 364 411 384 395 343 286 254 239 233 231
49 55 53 42 54 61 26 41 46 45 56 79 65 63 45 52 45 45 36 32 18 -4 7 23 42 62 145 219 268 339 380 435 388 361 413 421 345 321 314 300 272 233 195
46 49 41 27 40 35 33 35 36 34 39 67 54 28 31 23 10 27 44 44 42 33 50 55 134 181 246 238 288 297 380 346 363 366 365 361 306 287 285 281 250 230 240
47 48 37 26 31 30 49 -0 19 34 49 49 49 33 41 40 26 15 21 18 32 52 97 214 234 207 207 218 242 328 294 256 283 366 331 331 287 277 234 186 206 191 213
49 63 46 36 39 46 17 15 24 51 60 67 35 31 61 52 39 40 37 41 84 162 238 259 237 256 270 263 292 294 312 297 333 325 312 276 251 229 207 164 164 153 146
57 57 44 37 42 7 13 66 53 36 74 53 -0 23 19 36 55 48 29 35 121 217 260 238 235 237 275 282 286 275 273 281 282 259 226 209 210 196 181 164 144 122 110
50 54 45 28 8 13 31 32 78 105 72 34 18 30 21 15 22 19 13 85 146 206 244 224 248 277 286 292 280 275 295 271 214 197 198 200 191 178 161 134 115 106 108
33 10 12 29 42 35 27 41 40 56 94 46 34 26 6 10 -3 50 101 145 157 188 215 223 231 246 249 263 263 268 262 226 206 187 194 175 155 135 108 104 97 88 78
5 17 31 49 38 36 30 30 29 34 58 16 26 12 8 35 60 89 120 134 133 165 175 178 183 210 242 256 256 247 216 191 175 178 172 147 111 91 101 95 82 78 80
13 38 48 38 43 32 18 21 28 30 57 3 23 41 53 25 30 70 101 125 133 159 161 172 176 200 220 213 197 196 193 168 163 166 138 110 89 89 99 88 78 75 81
17 44 76 36 37 35 28 24 35 58 61 3 24 45 48 37 28 67 94 112 115 128 143 157 178 184 166 155 161 162 163 153 130 113 98 91 90 86 78 79 81 88 85
4 34 53 63 62 47 31 45 46 70 36 1 25 43 57 43 45 54 76 101 118 134 146 155 154 129 116 131 135 138 132 105 81 83 89 85 82 85 87 87 91 84 74
7 49 67 78 60 62 55 40 50 60 8 1 45 67 61 53 53 70 92 110 128 145 135 125 149 169 171 161 122 78 66 52 49 62 77 75 76 84 85 80 71 67 64
29 61 85 98 79 60 52 45 66 50 8 21 68 65 68 62 74 93 118 131 141 152 164 166 167 159 141 119 99 90 85 75 71 64 77 84 85 78 72 69 65 67 69
61 92 105 116 95 73 70 61 63 17 13 44 68 78 79 81 108 130 138 140 156 176 175 174 150 112 90 73 67 66 64 70 71 75 82 85 82 78 75 72 70 74 76
82 105 140 103 80 85 75 87 33 16 30 52 73 90 91 108 135 151 147 149 167 182 173 169 135 112 92 78 69 55 54 60 59 65 71 74 77 79 77 74 70 72 71
Wind_Speed
84 85 86 86 84 82 81 80 80 82 81 80 79 79 78 76 76 76 74 73 72 71 69 69 67 64 64 59 53 55 57 58 64 61 58 55 52 51 47 45 39 32 26
84 84 85 85 84 83 81 79 78 81 80 80 80 80 80 78 77 78 76 73 74 75 73 72 72 68 64 61 56 58 58 58 59 59 58 58 55 49 48 47 44 33 29
84 84 84 84 82 81 81 80 77 76 76 76 78 78 78 77 77 77 76 74 76 77 75 73 71 71 70 62 59 61 60 57 58 54 56 53 52 42 37 35 36 33 34
82 83 83 84 83 82 81 81 80 79 80 79 79 79 79 78 77 76 76 74 76 77 77 74 74 72 77 67 63 58 56 57 54 53 51 47 47 43 39 34 31 29 29
82 81 79 80 81 80 81 82 83 84 83 84 84 81 81 79 77 76 74 73 77 80 79 78 77 78 81 82 60 58 54 53 54 52 50 49 47 43 42 34 33 30 33
82 79 78 78 78 78 80 82 83 84 84 84 84 83 81 79 79 79 79 77 80 83 84 82 80 80 82 84 59 56 51 51 54 56 53 52 49 45 39 36 35 37 42
83 81 79 78 78 78 81 82 82 83 83 84 82 80 80 78 76 77 79 79 82 82 81 81 81 76 79 69 53 48 51 49 50 53 53 48 44 38 34 33 33 35 40
82 79 77 78 77 78 80 80 80 79 80 81 79 77 76 74 76 77 78 76 79 80 80 81 81 79 72 61 58 56 53 50 53 57 53 37 34 28 29 32 28 26 26
82 80 77 76 77 77 79 80 79 78 78 78 77 76 76 77 77 78 78 77 81 84 80 83 84 81 87 90 71 51 55 53 52 44 38 35 22 16 18 18 23 22 30
82 79 74 70 70 74 74 77 76 73 74 74 76 76 77 78 77 78 78 77 76 76 80 84 87 89 86 72 34 37 44 43 36 31 21 18 14 14 14 20 16 19 24
80 74 70 65 67 66 72 75 71 71 70 75 75 74 73 73 73 75 75 72 70 70 72 76 77 81 79 32 27 34 29 26 27 20 15 14 17 17 17 15 16 13 16
78 73 68 65 65 65 75 71 66 67 72 70 72 72 69 68 69 65 64 66 66 66 66 63 62 61 43 25 36 26 26 19 16 16 13 16 13 8 6 7 9 13 19
79 74 69 67 65 67 68 68 74 66 66 70 68 64 61 57 56 57 59 61 61 61 59 47 13 12 14 13 23 26 24 23 14 13 16 12 9 5 1 2 6 10 13
78 75 71 65 72 65 55 64 57 58 56 52 51 52 53 52 51 50 50 49 48 50 23 11 8 10 11 17 19 17 19 15 17 19 13 11 7 4 1 2 5 9 12
76 73 69 65 71 49 45 55 52 52 51 52 54 51 50 50 49 48 47 43 40 32 15 14 7 12 12 18 17 15 13 12 14 16 15 11 7 3 3 4 7 12 13
78 74 67 78 40 41 58 56 53 53 54 53 52 49 48 48 49 46 45 38 24 23 22 20 15 16 17 17 15 16 13 14 13 13 11 9 6 3 2 6 11 12 12
80 74 75 72 41 58 57 55 56 55 50 49 47 44 43 42 40 39 35 21 20 22 22 19 20 22 21 23 19 18 15 12 13 10 9 6 5 5 6 8 10 11 13
84 82 75 68 51 59 57 54 55 52 50 49 43 38 35 34 29 13 14 18 21 22 22 26 24 23 23 22 18 15 13 12 10 8 7 5 8 9 7 6 8 10 12
83 78 70 64 63 59 57 53 53 50 47 46 40 31 23 16 14 16 20 21 20 20 21 27 24 23 21 18 14 11 11 11 9 8 5 8 5 5 6 8 11 12 13
77 70 67 65 60 58 54 52 51 49 47 43 38 31 25 23 23 22 21 19 18 19 17 21 17 17 16 14 12 12 11 10 8 6 6 4 5 7 11 12 12 13 16
71 67 63 59 56 55 53 50 50 48 46 42 38 35 28 24 18 17 15 16 17 15 15 16 15 14 13 12 11 11 10 9 7 6 6 7 9 11 12 13 13 15 19
66 58 56 55 54 52 51 50 50 47 45 41 36 30 23 23 21 16 17 16 14 12 13 14 13 12 12 12 11 11 10 9 7 7 8 9 9 11 11 13 15 18 20
56 53 52 51 51 50 49 48 46 45 42 38 31 26 25 23 19 15 15 15 13 12 12 12 10 10 9 8 7 7 10 9 8 11 13 12 12 12 13 15 17 19 20
52 51 48 49 48 48 47 46 44 43 39 33 30 27 22 19 16 13 15 15 13 12 11 9 10 10 8 7 7 7 5 6 7 8 12 14 14 13 14 15 17 20 22
49 48 47 47 47 46 45 43 41 38 34 31 29 24 18 16 18 18 17 16 14 13 12 12 9 9 9 9 7 6 10 14 13 13 11 12 13 14 15 16 17 20 22
48 49 48 48 47 44 43 40 36 33 30 29 26 22 15 16 19 18 17 15 14 12 11 11 11 10 10 7 8 13 16 18 17 17 13 15 15 15 16 17 18 20 21
Wind_Direction
327 323 319 316 315 314 311 309 306 301 299 297 294 291 288 286 283 283 283 283 282 282 282 279 279 277 276 276 273 272 271 272 272 276 273 274 276 275 275 275 275 274 261
328 324 320 317 314 311 310 311 308 302 300 298 295 291 288 285 283 282 281 281 282 280 281 280 277 278 273 273 272 271 270 268 269 270 273 273 274 274 274 269 269 277 265
328 325 322 319 317 314 312 311 312 310 307 304 299 295 293 291 287 284 282 281 280 280 279 280 278 276 275 271 270 269 268 268 267 268 270 273 274 271 272 269 272 273 271
332 328 324 319 316 314 312 310 309 308 305 303 299 295 293 291 289 287 283 281 280 280 279 279 277 275 273 273 271 265 267 265 264 265 268 268 268 271 265 264 263 267 271
333 332 330 326 322 319 315 312 308 306 304 301 298 296 292 290 288 287 284 282 281 281 279 277 276 272 271 271 267 265 262 263 260 257 261 263 263 261 255 261 258 262 274
334 334 332 330 327 324 321 317 313 310 307 303 299 296 293 291 288 285 282 281 280 279 276 274 274 271 270 271 262 262 260 257 254 254 255 256 257 258 257 249 253 261 269
334 334 333 332 329 327 324 321 317 313 310 306 302 299 295 292 290 287 283 281 280 279 276 272 272 271 269 270 268 254 254 250 251 248 251 248 257 250 250 247 251 261 270
336 337 336 333 331 329 326 323 319 316 312 308 305 300 297 294 290 287 285 283 282 280 276 270 269 268 269 266 266 261 256 249 246 247 251 246 256 250 240 253 247 262 282
339 338 337 335 333 331 328 323 320 317 314 309 304 299 294 290 287 283 281 281 280 275 270 261 260 262 255 248 254 256 251 247 246 247 250 253 250 223 232 237 243 248 275
340 340 339 338 336 333 331 326 323 321 317 310 299 293 288 280 278 275 276 273 270 262 251 248 245 244 240 232 236 235 243 244 236 234 237 243 227 227 236 256 221 251 273
341 341 341 340 338 337 332 328 329 325 317 298 288 288 282 280 282 277 265 252 251 253 248 243 241 236 235 226 204 225 220 223 219 219 222 229 242 252 258 264 272 261 274
342 342 342 341 340 339 330 333 333 324 296 286 290 291 292 288 275 257 248 245 245 246 240 235 238 237 236 222 232 193 189 206 208 206 200 220 215 222 249 280 301 305 310
342 342 342 340 340 338 338 337 314 288 286 298 292 280 273 266 259 253 249 245 243 237 232 236 232 218 215 220 182 169 198 192 161 161 176 194 206 186 153 31 5 5 360
341 342 341 341 335 341 347 292 280 278 275 271 269 266 261 257 255 253 250 247 238 226 222 220 204 200 141 154 185 197 187 187 147 157 157 145 160 146 134 324 354 12 1
342 342 341 340 334 350 277 279 275 270 268 271 272 264 257 252 252 252 246 243 228 224 211 207 206 196 192 193 186 182 169 149 147 150 142 143 145 194 277 7 5 352 351
341 341 341 317 351 280 284 282 278 274 275 278 276 264 258 250 252 244 236 240 233 224 224 221 220 212 206 197 183 176 167 153 149 143 132 135 154 198 54 357 0 4 352
337 337 329 296 272 284 282 281 283 283 277 282 279 270 263 256 250 243 240 238 234 233 231 233 226 223 211 203 183 174 165 164 132 137 122 135 122 85 52 23 3 349 352
328 306 306 291 275 282 281 278 279 276 277 287 282 275 269 258 256 271 243 239 241 238 234 224 216 208 194 181 171 158 148 141 144 134 128 113 87 74 54 4 348 19 29
313 308 295 286 286 281 280 277 276 273 272 279 276 276 286 291 279 264 255 243 233 227 219 208 203 193 184 173 162 151 139 145 145 137 127 88 67 53 35 34 44 38 29
304 295 294 291 286 285 282 279 277 272 273 277 267 260 263 264 262 256 247 240 229 215 203 195 182 173 165 161 143 141 144 146 141 128 102 81 51 52 65 63 48 35 20
299 296 292 291 285 284 280 277 276 270 270 271 260 249 253 261 269 260 248 231 212 202 192 182 175 169 161 152 162 153 137 131 132 125 99 78 76 73 59 51 38 26 29
299 292 290 288 285 283 280 276 275 269 268 266 257 252 262 263 264 261 236 222 212 197 187 172 171 177 178 173 152 135 134 132 126 111 97 89 76 64 50 42 37 34 33
298 293 290 288 286 284 281 279 275 270 269 263 256 255 258 262 261 247 226 214 200 185 188 187 177 181 187 182 179 144 124 123 116 104 97 88 74 62 53 50 40 33 31
301 297 292 291 288 287 284 281 276 270 268 262 253 254 261 261 247 225 210 202 198 202 206 197 196 179 161 165 179 191 162 116 100 88 82 78 71 62 54 49 35 36 33
306 301 298 296 296 292 289 285 277 274 268 260 252 253 260 248 222 215 213 215 213 210 208 204 185 162 166 158 156 129 102 94 84 77 66 61 62 57 52 44 39 32 30
312 311 308 307 305 299 296 289 283 277 270 261 252 249 251 231 219 217 221 219 213 206 195 193 187 171 158 152 115 98 91 87 81 78 61 64 62 53 44 41 42 36 24